TIME,DELAY(SENSOR),PRES,T(CTD),SAL,OXYGEN,RAWTEMP,T(OPTODE),TCPHASE,FLUOR,BETA(BETA700),BETA(BETA412),BETA(BETA440),CDOM,C(CSC),ED(ED412.40),ED(ED444.00),ED(ED489.70),ED(ED554.30),LU(LU411.80),LU(LU443.40),LU(LU489.60),LU(LU554.10),COMP,TILTX,TILTX(TILTY),CHECK
1346362021,5808,496.7000122070312500,5.9552001953125000,34.1899986267089840,56.3175201416015600,619.8115234375000000,5.9423809051513670,52.1664886474609400,53,103,89,80,81,15237,2147752950,2147420324,2148006720,2147872502,2147633764,2147068571,2148253138,2147200173,389,4,13,20683
1346362148,5805,485.6199951171875000,6.0929999351501465,34.1856994628906250,59.8025016784668000,615.9232788085938000,6.0686631202697750,51.6496696472168000,52,105,90,80,80,15234,2147752393,2147422134,2148006902,2147868891,2147632932,2147070829,2148249097,2147201828,347,5,13,44355
1346362277,5809,474.5299987792969000,6.1789999008178710,34.1722984313964840,62.6265182495117200,613.2034912109375000,6.1569061279296875,51.2393493652343750,52,104,89,81,79,15239,2147750189,2147421129,2148004754,2147871405,2147633280,2147078162,2148245174,2147201005,3150,5,13,62703
1346362416,5811,463.0299987792969000,6.4079999923706055,34.1674003601074200,67.9302062988281200,606.2462768554688000,6.3823032379150390,50.4680709838867200,53,105,88,81,80,15234,2147753910,2147418304,2148003931,2147869723,2147631186,2147077184,2148245641,2147203520,2796,4,13,46499
1346362543,5807,452.8599853515625000,6.5584998130798340,34.1586990356445300,73.0668029785156200,601.4697875976562000,6.5367770195007320,49.7627906799316400,52,106,90,80,79,15233,2147752310,2147422262,2148005357,2147872457,2147629330,2147076004,2148239643,2147205037,2394,5,13,32268
1346362685,5806,441.9500122070312500,6.6616997718811035,34.1411018371582000,80.1182479858398400,598.2880249023438000,6.6395568847656250,48.8709297180175800,51,107,89,80,79,15235,2147753124,2147421083,2148007296,2147873654,2147628324,2147078683,2148241490,2147200758,2131,4,13,58707
1346362836,5807,431.0499877929687500,6.7839999198913570,34.1138000488281250,89.6925582885742200,594.8681030273438000,6.7499198913574220,47.7288589477539060,51,104,90,80,79,15233,2147750454,2147421696,2148006966,2147871744,2147630875,2147077613,2148242678,2147199798,3435,4,13,49524
1346362986,5809,419.0000000000000000,7.0309000015258790,34.1124000549316400,96.5159072875976600,586.2979125976562000,7.0260109901428220,46.8521995544433600,53,104,90,81,79,15239,2147749266,2147420836,2148004644,2147872621,2147629659,2147079177,2148243821,2147203702,885,5,13,9671
1346363101,5809,408.6099853515625000,7.2044000625610350,34.0932006835937500,106.5007019042968800,581.2246704101562000,7.1891250610351560,45.7277984619140600,51,106,86,80,77,15236,2147747154,2147422098,2148005833,2147871533,2147628397,2147080219,2148237924,2147201993,1354,4,13,24564
1346363230,5810,397.0000000000000000,7.5374999046325680,34.1138992309570300,112.6950988769531200,571.1135253906250000,7.5135288238525390,44.9431495666503900,50,105,88,80,78,15233,2147749046,2147419117,2148006912,2147870354,2147627584,2147082962,2148233453,2147202157,473,4,13,9017
1346363345,5811,386.6099853515625000,7.8578000068664550,34.1194992065429700,117.0735015869140600,560.7075195312500000,7.8464579582214355,44.3411903381347660,51,109,89,81,78,15233,2147747428,2147419922,2148001645,2147872064,2147626587,2147090450,2148231936,2147202560,511,4,13,12015
1346363472,5808,375.0899963378906000,8.2503004074096680,34.1251983642578100,127.6883010864257800,548.6140136718750000,8.2322177886962890,43.1405181884765600,50,109,93,81,77,15226,2147744905,2147418130,2148005110,2147872731,2147623268,2147085001,2148232685,2147203437,748,4,12,39255
1346363602,5803,364.0199890136719000,8.6236000061035160,34.1212997436523440,138.2908935546875000,537.0352783203125000,8.6004257202148440,41.9986305236816400,50,107,90,80,76,15230,2147745115,2147422080,2148001993,2147873910,2147622162,2147089746,2148230317,2147204205,388,4,13,14447
1346363741,5808,353.8200073242187500,8.7938003540039060,34.1133003234863300,151.5382995605468800,531.2716064453125000,8.7833194732666020,40.7910118103027340,50,105,90,80,74,15235,2147744667,2147421732,2148005504,2147868598,2147621229,2147088246,2148229632,2147202121,3055,4,13,36230
1346363901,5810,341.6000061035156000,9.2280998229980470,34.0971984863281250,173.9385070800781200,517.5073242187500000,9.2190513610839840,38.8551483154296900,50,104,87,81,74,15236,2147744960,2147420452,2148004818,2147872685,2147617883,2147093979,2148227995,2147204059,1359,4,13,4426
1346364028,5808,330.3299865722656000,9.6431999206542970,34.1277008056640600,180.1979980468750000,504.6672973632812500,9.6242551803588870,38.1963005065918000,49,107,90,81,73,15232,2147741257,2147420434,2148001152,2147874953,2147616064,2147097170,2148225316,2147205348,952,4,13,6523
1346364145,5809,319.1099853515625000,9.9038000106811520,34.1365013122558600,179.9440002441406200,495.8562011718750000,9.9016351699829100,38.0623512268066400,48,110,85,81,72,15227,2147741202,2147423588,2148005568,2147872064,2147615908,2147098596,2148225563,2147202331,620,4,13,42415
1346364260,5810,307.8699951171875000,10.2578001022338870,34.1412010192871100,187.3350067138672000,484.5414123535156000,10.2570600509643550,37.3725395202636700,50,106,92,83,74,15229,2147736155,2147423195,2148002185,2147869120,2147613037,2147099053,2148220626,2147201270,3546,3,14,51749
1346364375,5809,296.3399963378906000,10.4140996932983400,34.1469993591308600,189.8300018310547000,478.8382873535156000,10.4358797073364260,37.1131095886230500,48,109,90,81,72,15228,2147735524,2147421394,2148005248,2147871963,2147612909,2147103341,2148220443,2147203812,2856,4,13,34022
1346364492,5809,285.1400146484375000,10.7901000976562500,34.1735992431640600,190.1000061035156200,467.7460021972656000,10.7831001281738280,36.9105110168457000,49,108,90,81,74,15226,2147736182,2147423177,2148015753,2147870226,2147609755,2147105097,2148226971,2147204205,1406,4,13,21429
1346364607,5810,274.6199951171875000,11.1928997039794920,34.1777000427246100,191.9364013671875000,454.1520996093750000,11.2075996398925780,36.5675010681152340,49,109,90,82,70,15228,2147734884,2147422089,2148011913,2147876498,2147607753,2147116443,2148225216,2147202834,1777,4,13,5724
1346364734,5809,263.9100036621094000,11.6100997924804690,34.2024993896484400,196.8836975097656200,440.6654968261719000,11.6276903152465820,36.0343208312988300,48,109,92,79,71,15225,2147732955,2147423716,2148014272,2147873362,2147608374,2147112100,2148222025,2147207186,2360,4,14,45226
1346364876,5810,252.3999938964843800,11.9937000274658200,34.2088012695312500,201.0774993896484400,426.9928894042969000,12.0525703430175780,35.5551910400390600,49,108,89,81,70,15229,2147728228,2147426816,2148037403,2147873892,2147605357,2147119186,2148234020,2147206226,3246,4,14,35500
1346365015,5807,241.6000061035156200,12.5462999343872070,34.1986007690429700,206.8247985839843800,410.8304138183594000,12.5536003112792970,34.9553184509277340,49,106,85,80,69,15230,2147725860,2147426139,2148030884,2147873417,2147604909,2147120640,2148222016,2147209938,3231,4,13,54847
1346365163,5809,228.8200073242187500,13.1315002441406250,34.2505989074707000,208.4687957763672000,391.4064941406250000,13.1541299819946290,34.5563201904296900,49,105,88,82,69,15227,2147728329,2147434441,2148060434,2147871835,2147601398,2147125540,2148233344,2147207597,3319,4,13,14156
1346365278,5807,217.5800018310547000,13.9827995300292970,34.3264999389648440,212.8771972656250000,365.6636962890625000,13.9476404190063480,33.9093894958496100,48,106,89,80,67,15229,2147723638,2147447369,2148135588,2147873243,2147596004,2147141915,2148267574,2147211264,2820,4,15,46336
1346365407,5809,205.6699981689453000,14.6483001708984380,34.3913002014160160,217.6580963134765600,343.4718017578125000,14.6298103332519530,33.3116111755371100,49,104,88,80,68,15222,2147725686,2147454912,2148165449,2147871862,2147593353,2147149275,2148274898,2147215040,2406,4,13,14166
1346365510,5808,197.0899963378906200,15.2946996688842770,34.4500007629394500,219.7131042480468800,320.8559875488281000,15.3235197067260740,32.8672485351562500,50,105,89,80,67,15224,2147723090,2147476562,2148240960,2147872603,2147590966,2147166464,2148308763,2147217536,2325,3,13,50080
1346365565,5809,192.9900054931640600,15.5555000305175780,34.4645996093750000,218.6716003417968800,313.3164978027344000,15.5545101165771480,32.8137397766113300,47,109,87,81,66,15224,2147725714,2147482386,2148251538,2147872694,2147588882,2147172672,2148315456,2147217572,1376,3,14,30203
1346365620,5805,189.0000000000000000,15.6135997772216800,34.4719009399414060,218.1179962158203000,311.3392028808594000,15.6150598526000980,32.8149108886718750,49,104,89,80,68,15226,2147726217,2147508891,2148369673,2147872365,2147589421,2147187373,2148370523,2147218852,1349,3,14,25728
1346365675,5807,184.9199981689453000,15.7336997985839840,34.4869003295898440,217.7422943115234400,307.4006958007812500,15.7356595993042000,32.7780685424804700,49,104,88,80,69,15223,2147725869,2147522880,2148408466,2147874112,2147590345,2147204937,2148385609,2147220992,1107,3,14,15314
1346365750,5808,179.6699981689453000,16.0382003784179700,34.5345993041992200,217.7274017333984400,295.1253051757812500,16.1113395690917970,32.6017799377441400,50,104,90,81,67,15222,2147727085,2147540233,2148469961,2147870829,2147586806,2147210788,2148415972,2147222482,733,3,14,30917
1346365805,5809,176.1900024414062500,16.2427005767822270,34.5611991882324200,219.0982971191406200,290.0007934570312500,16.2681007385253900,32.4548797607421900,49,107,89,81,66,15219,2147730496,2147557888,2148522395,2147873179,2147588269,2147225170,2148442989,2147227291,616,3,14,13701
1346365872,5811,171.9600067138672000,16.6051998138427730,34.5912017822265600,218.4066925048828000,279.6423950195312500,16.5848293304443360,32.3438186645507800,50,105,90,80,67,15223,2147732982,2147582674,2148584813,2147874541,2147589129,2147236562,2148474130,2147228470,3199,3,14,37793
1346365939,5809,167.9100036621093800,16.6615009307861330,34.5974998474121100,218.1620025634765600,277.2753906250000000,16.6571807861328120,32.3232803344726560,50,107,88,81,67,15217,2147737737,2147612726,2148680320,2147873810,2147588123,2147256685,2148514843,2147232283,2201,3,15,55013
1346366006,5808,163.9100036621093800,17.1529006958007800,34.6539993286132800,216.8641967773437500,261.7799987792969000,17.1306991577148440,32.1739311218261700,50,105,85,80,66,15219,2147745773,2147644169,2148783844,2147875209,2147588132,2147280758,2148564434,2147231552,1576,3,15,47262
1346366085,5808,160.4199981689453000,17.4141006469726560,34.6917991638183600,217.3688049316406200,253.7057037353515600,17.3773593902587900,32.0336112976074200,51,106,90,81,65,15216,2147749604,2147670601,2148857490,2147877376,2147591570,2147294619,2148597485,2147236489,1105,3,15,36093
1346366212,5807,157.4600067138672000,17.5650005340576170,34.7126998901367200,217.9682006835937500,248.3018951416015600,17.5424098968505860,31.9258594512939450,51,109,85,81,66,15217,2147750710,2147686436,2148894802,2147875748,2147590573,2147307867,2148614912,2147237970,1060,3,15,48628
1346366407,5809,152.8699951171875000,17.8433990478515620,34.7459983825683600,218.1719055175781200,238.7760925292968800,17.8333301544189450,31.7822494506835940,53,108,88,81,65,15215,2147725248,2147516955,2148306176,2147875136,2147576256,2147212726,2148329142,2147223003,1659,3,15,40128
1346366510,5806,148.9199981689453000,17.9619998931884770,34.7597999572753900,218.3538055419922000,234.7799072265625000,17.9553699493408200,31.7173404693603500,53,107,89,81,66,15211,2147728283,2147541046,2148386724,2147874130,2147579190,2147230912,2148362633,2147225380,1864,3,15,3783
1346366613,5805,144.8800048828125000,18.0834007263183600,34.7773017883300800,218.5404968261718800,230.0494995117187500,18.0998306274414060,31.6422996520996100,55,108,88,81,66,15210,2147735396,2147558601,2148426998,2147875629,2147581110,2147244973,2148382564,2147224576,2084,3,15,30666
1346366704,5808,140.7200012207031200,18.8257999420166000,34.8702011108398440,217.6074981689453000,208.9653015136718800,18.7437305450439450,31.4018096923828120,59,117,89,82,65,15205,2147731081,2147549622,2148368969,2147877485,2147581513,2147229888,2148351762,2147221129,2751,3,15,46534
1346366795,5811,136.0899963378906200,18.9517993927001950,34.8919982910156250,218.8647003173828000,202.6730957031250000,18.9359207153320300,31.2497997283935550,61,110,86,82,64,15201,2147754066,2147622427,2148596342,2147881709,2147588196,2147284352,2148456539,2147234194,28,3,15,50288
1346366862,5808,132.3600006103515600,19.1200008392334000,34.9141998291015600,218.9756011962890600,197.1049041748047000,19.1060295104980470,31.1684207916259770,65,112,91,81,64,15198,2147808795,2147846445,2149249289,2147888594,2147612160,2147408832,2148774921,2147252214,215,3,15,3986
1346366941,5811,128.5599975585937500,19.5613994598388670,34.9794998168945300,219.3291931152343800,183.1094970703125000,19.5337009429931640,30.9610691070556640,71,113,89,82,63,15194,2147751625,2147607853,2148519387,2147879716,2147587602,2147281069,2148415917,2147226989,1117,2,15,63587
1346367035,5809,124.9599990844726600,19.8950996398925780,35.0125999450683600,219.7642059326172000,171.3177947998047000,19.8942108154296880,30.7802696228027340,72,113,90,80,64,15191,2147738523,2147559305,2148365037,2147877376,2147579986,2147253732,2148343936,2147226230,3554,3,16,57145
1346367198,5809,121.4800033569336000,20.4312000274658200,35.0890998840332000,219.9461975097656200,154.1161956787109400,20.4204998016357420,30.5421104431152340,100,126,88,82,63,15163,2147747702,2147589622,2148455012,2147880045,2147580077,2147272694,2148372900,2147227419,2728,3,15,26234
1346367349,5809,116.2200012207031200,20.4433994293212900,35.0873985290527340,218.5632019042968800,153.4544982910156200,20.4407501220703120,30.6046009063720700,99,125,92,83,63,15153,2147787510,2147691666,2148698340,2147885650,2147591771,2147318390,2148470473,2147233910,2327,3,15,43420
1346367416,5807,112.2099990844726600,20.7089996337890620,35.1045989990234400,217.1089019775390600,145.7864990234375000,20.6755409240722660,30.5781002044677730,102,122,89,83,64,15143,2147817938,2147772800,2148883785,2147892717,2147605869,2147356882,2148548352,2147243465,2131,2,15,5036
1346367483,5810,108.5400009155273400,20.8686008453369140,35.1108016967773440,217.1448974609375000,139.8930969238281200,20.8560905456542970,30.4983196258544920,112,126,89,85,64,15144,2147858596,2147868507,2149094491,2147899254,2147621275,2147395090,2148626834,2147248566,2106,2,16,35583
1346367562,5809,104.7300033569336000,21.1366004943847660,35.1249008178710940,217.4716033935547000,131.7070007324218800,21.1070003509521500,30.3735008239746100,115,126,92,84,65,15128,2147909366,2147974153,2149325394,2147909805,2147633737,2147436726,2148712731,2147258825,1969,2,15,50391
1346367668,5808,101.0100021362304700,21.1858005523681640,35.1330986022949200,220.0065002441406200,129.4145965576172000,21.1772899627685550,30.2131595611572270,118,123,92,85,64,15123,2147972754,2148091218,2149578752,2147917458,2147656539,2147495122,2148807625,2147267044,1089,2,15,59195
1346367735,5808,99.0899963378906200,21.2266006469726560,35.1371994018554700,221.1163024902343800,127.8681030273437500,21.2247200012207030,30.1364707946777340,119,124,93,84,64,15132,2148017106,2148178432,2149747867,2147926656,2147671634,2147529353,2148867154,2147275593,704,3,15,59309
1346367802,5805,97.3799972534179700,21.4487991333007800,35.1633987426757800,223.2469024658203000,121.4135971069336000,21.4227409362792970,29.9449501037597660,119,123,93,83,64,15128,2148064274,2148257554,2149905956,2147937627,2147686171,2147560694,2148926482,2147280374,490,3,15,29359
1346367905,5810,95.5800018310546900,21.6945991516113280,35.2131996154785160,228.7709960937500000,114.8035964965820300,21.6256504058837900,29.5872993469238280,124,120,89,84,62,15119,2148110966,2148349293,2150095149,2147946989,2147707373,2147604004,2148993142,2147288109,638,3,15,4513
1346367996,5806,92.9400024414062500,21.6611003875732420,35.1879005432128900,232.7030029296875000,113.6377029418945300,21.6614494323730470,29.3836593627929700,125,121,90,83,63,15117,2148203328,2148505965,2150397110,2147965074,2147742208,2147676489,2149106377,2147300964,345,3,15,41419
1346368051,5808,90.2300033569336000,21.6056995391845700,35.1640014648437500,231.6051025390625000,115.2246017456054700,21.6127204895019530,29.4563407897949220,129,123,91,84,62,15112,2148316653,2148704457,2150774336,2147993444,2147783488,2147753216,2149241453,2147315675,3215,2,16,42045
1346368106,5808,87.0999984741211000,21.6061992645263670,35.1632995605468750,230.5704040527343800,115.4480972290039000,21.6058597564697270,29.5085697174072270,126,123,94,84,63,15109,2148466962,2148962441,2151237760,2148027520,2147833728,2147855104,2149411922,2147333412,2786,3,15,44479
1346368161,5808,83.8799972534179700,21.6158008575439450,35.1582984924316400,229.7902984619140600,115.1985015869140600,21.6135196685791000,29.5430603027343750,133,124,91,85,62,15105,2148679908,2149294710,2151833545,2148072045,2147909348,2147987126,2149631277,2147363053,3002,3,16,47534
1346368216,5810,80.7200012207031200,22.1259994506835940,35.1922988891601560,230.8202972412109400,99.9059829711914000,22.0834503173828120,29.2970695495605470,122,117,90,83,62,15114,2148911680,2149658962,2152457517,2148126070,2147992649,2148138980,2149868653,2147391826,3363,2,16,8065
1346368274,5811,78.5299987792968800,22.2036991119384770,35.1994018554687500,234.8168029785156200,96.5978469848632800,22.1852092742919920,29.0658092498779300,117,120,93,83,61,15129,2149088731,2149925632,2152914285,2148171017,2148062857,2148261293,2150048576,2147415424,3073,2,15,14023
1346368329,5809,77.0299987792968800,22.2432994842529300,35.1992988586425800,236.6268005371093800,95.1169433593750000,22.2307701110839840,28.9629802703857420,114,117,91,82,61,15125,2149258221,2150176621,2153330614,2148216164,2148129170,2148370377,2150213622,2147437019,2795,2,15,28329
1346368408,5810,75.6200027465820300,22.3820991516113280,35.1977996826171900,236.9750976562500000,90.5059127807617200,22.3726902008056640,28.8882198333740230,109,120,89,84,62,15125,2149385965,2150348205,2153595602,2148243556,2148184694,2148453065,2150319012,2147453632,2048,2,16,45194
1346368642,5809,73.1399993896484400,22.5575008392334000,35.2019004821777340,239.7164001464843800,84.5367965698242200,22.5565204620361330,28.6871604919433600,111,120,91,84,60,15101,2149713462,2150733549,2154143616,2148317696,2148330907,2148631469,2150548827,2147487826,1957,3,16,36476
1346368721,5806,71.0999984741211000,22.8143997192382800,35.1972007751464840,239.6699066162109400,76.9824218750000000,22.7893600463867200,28.5941696166992200,105,123,93,83,60,15099,2150000932,2151122633,2154750573,2148392612,2148457664,2148814390,2150812123,2147524809,2190,3,15,17757
1346368800,5806,69.2900009155273400,23.1128997802734380,35.1932983398437500,240.1107025146484400,67.6141128540039000,23.0784301757812500,28.4565391540527340,106,122,91,83,59,15100,2150360978,2151635053,2155577828,2148491904,2148620434,2149053101,2151162038,2147577316,1044,2,16,7781
1346368915,5808,67.0000000000000000,23.3673992156982420,35.1978988647460940,242.4118957519531200,58.8192787170410160,23.3501300811767580,28.2432498931884770,105,122,90,85,60,15132,2151162377,2152793865,2157454930,2148738294,2148988608,2149611565,2151973302,2147686409,942,2,15,31870
1346368982,5807,64.9899978637695300,23.5382003784179700,35.2149009704589840,243.3462982177734400,53.9417304992675800,23.5009593963623050,28.1411304473876950,94,127,93,84,60,15112,2151738660,2153605065,2158737956,2148916306,2149279972,2150020690,2152555062,2147777801,513,3,15,63673
1346369049,5807,63.1199989318847660,23.7094993591308600,35.2219009399414060,244.0845947265625000,48.2856483459472660,23.6760005950927730,28.0381908416748050,94,123,91,84,59,15124,2152469851,2154618916,2160292342,2149168722,2149641691,2150540681,2153255268,2147885686,883,2,16,24447
1346369116,5804,61.2799987792968750,23.8504009246826170,35.1832008361816400,245.1856994628906200,42.8369903564453100,23.8447608947753900,27.9221992492675780,97,125,93,89,59,15118,2153219282,2155655478,2161880877,2149441920,2150012928,2151058870,2153964342,2147994742,1080,2,16,20153
1346369217,5810,58.6599998474121100,24.3497009277343750,35.2197990417480500,245.9660034179687500,27.6358890533447270,24.3163509368896500,27.7008094787597660,101,132,93,86,59,15084,2154669750,2157664850,2164869558,2149976402,2150708114,2152028480,2155276205,2148221302,1174,2,16,183
1346369272,5816,56.7500000000000000,24.4946994781494140,35.2089004516601560,245.9185943603515600,23.0161094665527340,24.4598999023437500,27.6460094451904300,100,128,93,87,60,15024,2155779940,2159182509,2167078729,2150405650,2151232356,2152751542,2156229430,2148398473,1807,2,16,33326
1346369327,5811,55.1300010681152340,24.5287990570068360,35.1968002319335940,245.4517059326172000,21.6492691040039060,24.5023994445800780,27.6495800018310550,101,129,93,86,59,14934,2156775040,2160522459,2169012187,2150813796,2151697188,2153403145,2157083693,2148564598,1692,2,16,21680
1346369406,5807,53.4300003051757800,24.6298999786376950,35.2033004760742200,244.7906036376953000,18.8866806030273440,24.5883102416992200,27.6444606781005860,99,131,95,87,57,14974,2158019858,2162202166,2171432594,2151321792,2152276827,2154204096,2158125010,2148763035,1348,2,16,51013
1346369544,5810,51.2900009155273440,24.8455009460449220,35.2228012084960940,244.6963043212890600,10.8035898208618160,24.8399391174316400,27.5494499206542970,102,130,92,88,59,15096,2159985956,2164824265,2174929910,2152166134,2153265408,2155481929,2159718144,2149095872,1514,2,16,23991
1346369899,5807,49.3800010681152340,25.8173999786376950,35.2400016784668000,238.6950073242187500,-18.4720497131347660,25.7544803619384770,27.4549293518066400,118,147,101,90,58,14949,2160841993,2165833737,2175275300,2152337444,2153481974,2155544219,2159686756,2149181723,2587,2,16,54680
1346370062,5808,47.6899986267089840,25.8579998016357420,35.2513999938964840,238.5722961425781200,-21.5058803558349600,25.8495597839355470,27.4233398437500000,89,136,93,89,57,15052,2161791552,2166911908,2176273426,2152745042,2153818176,2155895826,2160052150,2149346806,2660,2,16,63254
1346370177,5809,44.6500015258789060,25.8624000549316400,35.2531013488769500,238.9402008056640600,-21.7572593688964840,25.8574409484863280,27.4040908813476560,95,138,93,87,58,14971,2165055963,2170866212,2180791753,2154171081,2155375268,2157772278,2162075136,2149896118,2146,2,16,37846
1346370232,5810,42.2900009155273440,25.8694000244140620,35.2541007995605500,239.1858062744140600,-21.9906291961669920,25.8647499084472660,27.3901691436767580,85,140,95,89,58,14973,2168006893,2174364790,2184742802,2155573778,2156821385,2159496018,2163874176,2150408164,2061,2,16,32793
1346370287,5809,39.8499984741210940,25.8794994354248050,35.2560005187988300,239.2628021240234400,-22.3066291809082030,25.8746604919433600,27.3830108642578120,88,141,93,89,56,14984,2171396507,2178422756,2189343460,2157144054,2158536612,2161544374,2166008521,2151002925,2173,2,16,46581
1346370342,5807,37.4399986267089840,25.8957996368408200,35.2606010437011700,239.5753936767578000,-22.9011402130126950,25.8932991027832030,27.3618202209472660,91,151,98,86,56,14924,2174949531,2182521654,2193888676,2159038976,2160537773,2163893531,2168367369,2151691273,2121,2,16,26455
1346370397,5807,35.0800018310546900,25.9102001190185550,35.2624015808105500,239.5827026367187500,-23.3176403045654300,25.9063606262207030,27.3563899993896500,85,153,95,88,56,14849,2179886125,2188164653,2200058121,2161825819,2163198491,2166960621,2171340589,2152647396,2306,2,16,49332
1346370475,5810,31.1700000762939450,25.9158000946044920,35.2592010498046900,239.8032989501953000,-23.5674400329589840,25.9141998291015620,27.3436298370361330,72,147,95,88,56,14971,2190362404,2200011739,2212684928,2167828333,2168627803,2173116297,2177333211,2154766820,2581,2,16,64508